Flag Weather past 2 weeks in Walvis Bay, Namibia

Now
72 °F

Sandstorm.


Feels Like: 76 °F
Forecast: 60 / 74 °F
Wind: 22 mph from Southwest

Location: Walvis Bay

Current Time: Nov 26, 2014 at 6:39:44 PM

Latest Report: Nov 26, 2014 at 5:00 PM


Visibility: 1 mi

Pressure: 29.92 "Hg

Humidity: 57%

Dew point: 55 °F

Location of Walvis BayLocation

Historic Weather in Walvis Bay — Graph

°F

Walvis Bay temperature yesterday

Maximum temperature yesterday: 70 °F (at 3:00 PM)
Minimum temperature yesterday: 55 °F (at 12:00 AM)
Average temperature yesterday: 59 °F

Past Weeks' High & Low Weather Summary

 TemperatureHumidityPressure
High88 °F (Nov 18, 2:00 PM)94% (Nov 14, 4:00 AM)30.09 "Hg (Nov 14, 4:00 AM)
Low50 °F (Nov 15, 5:00 AM)25% (Nov 18, 2:00 PM)29.83 "Hg (Nov 11, 5:00 PM)
Average63 °F69%29.97 "Hg
* Reported Nov 11 5:00 PM — Nov 26 5:00 PM, Walvis Bay, Weather by CustomWeather, © 2014

Note: Actual official high and low records may vary slightly from our data, if they occured in-between our weather recording intervals... More about our weather records

Advertising

Walvis Bay weather history for previous 24 hours

 ConditionsComfort  
Time TempWeatherWind HumidityBarometerVisibility
5:00 PM
Nov 26
72 °FSandstorm.22 mph57%29.92 "Hg1 mi
4:00 PM72 °FMild.23 mph53%29.92 "HgN/A
3:00 PM73 °FScattered clouds.21 mph50%29.95 "HgN/A
2:00 PM73 °FScattered clouds.17 mph47%29.95 "HgN/A
1:00 PM73 °FMild.12 mph50%29.98 "HgN/A
12:00 PM73 °FSunny.7 mph50%29.98 "Hg10 mi
11:00 AM72 °FSunny.8 mph50%30.01 "Hg10 mi
10:00 AM68 °FMild.3 mph60%30.01 "HgN/A
9:00 AM64 °FSunny.2 mph68%30.04 "Hg10 mi
6:00 AM57 °FPassing clouds.5 mph82%30.01 "HgN/A
4:00 AM54 °FCool.2 mph82%30.01 "HgN/A
3:00 AM55 °FCool.No wind82%30.01 "HgN/A
2:00 AM57 °FCool.1 mph77%30.04 "HgN/A
1:00 AM57 °FCool.2 mph82%30.01 "HgN/A
12:00 AM57 °FCool.2 mph82%30.01 "HgN/A
11:00 PM
Nov 25
59 °FCool.6 mph77%30.01 "HgN/A
10:00 PM59 °FCool.2 mph77%30.01 "HgN/A
9:00 PM59 °FCool.9 mph82%30.01 "HgN/A
Weather by CustomWeather, © 2014

See weather overviewHow to use our weather pages